Location: Gisborne
(38.6530°S, 178.0040°E)
Time: 21:10:29
(UTC+12:00)

Cosmos 1655 Rocket - Pass Details

Date: 24 January 2019
Orbit: 969 x 1007 km, 83.0° (Epoch: 19 April)

Event Time Altitude Azimuth Distance (km) Brightness Sun altitude
Rises 20:56:49 0° 350° (N) 3,702 6.8 -5.5°
Reaches altitude 10° 20:59:21 10° 347° (NNW) 2,756 6.2 -6.0°
Maximum altitude 21:05:40 74° 263° (W) 1,038 4.4 -7.0°
Drops below altitude 10° 21:12:01 10° 177° (S) 2,763 6.8 -8.1°
Sets 21:14:33 0° 175° (S) 3,713 7.4 -8.5°
